Location: Newark
(15.4608°S, 41.1635°W)
Time: 16:33:11
(UTC+00:00)

Vanguard 1 Rocket - Visible Passes

Search period start: 26 February 2021 00:00
Search period end: 08 March 2021 00:00
Orbit: 654 x 4222 km, 34.3° (Epoch: 25 February)

Date Brightness Start Highest point End Pass type
(mag) Time Alt. Az. Time Alt. Az. Time Alt. Az.
26 Feb 10.2 01:22:58 10° WSW 01:29:54 41° W 01:29:54 41° W visible
26 Feb 9.4 21:47:31 10° SW 21:54:40 38° SSE 22:05:16 15° E visible
27 Feb 9.3 00:11:33 10° WSW 00:22:31 80° NW 00:22:31 80° NW visible
27 Feb 11.2 02:39:43 10° W 03:21:18 - NNE 02:39:47 10° W visible
27 Feb 9.0 23:00:50 10° SW 23:09:49 73° SE 23:15:12 46° ENE visible
28 Feb 10.4 01:26:38 10° WSW 01:32:27 32° W 01:32:27 32° W visible
28 Feb 9.1 21:50:36 10° SW 21:57:46 46° SSE 22:07:56 17° E visible
01 Mar 9.5 00:14:54 10° WSW 00:25:13 65° NW 00:25:13 65° NW visible
01 Mar11.403:23:09NNE03:23:09NNE02:42:29Wvisible
01 Mar 8.9 23:03:59 10° WSW 23:12:47 89° SSE 23:18:01 48° ENE visible
02 Mar 10.6 01:30:37 10° W 01:35:18 25° WNW 01:35:18 25° WNW visible
02 Mar 8.8 21:53:40 10° SW 22:00:48 58° SE 22:10:53 19° ENE visible
03 Mar 9.7 00:18:26 10° WSW 00:28:11 51° NW 00:28:11 51° NW visible
03 Mar11.503:24:52NNE03:24:52NNE02:45:28Wvisible
03 Mar 9.0 23:07:17 10° WSW 23:15:51 73° NNW 23:21:08 45° NE visible
04 Mar 10.8 01:35:05 10° W 01:38:26 19° WNW 01:38:26 19° WNW visible
04 Mar 8.5 21:56:47 10° SW 22:03:48 75° SSE 22:14:08 19° ENE visible
05 Mar 10.0 00:22:16 10° W 00:31:27 39° NW 00:31:27 39° NW visible
05 Mar 9.2 23:10:44 10° WSW 23:19:04 56° NNW 23:24:32 38° NNE visible
06 Mar 11.0 01:40:18 10° WNW 01:41:51 13° WNW 01:41:51 13° WNW visible
06 Mar 8.5 22:00:01 10° WSW 22:06:53 84° NNW 22:17:42 17° NE visible
07 Mar 10.3 00:26:31 10° W 00:35:01 29° NNW 00:35:01 29° NNW visible
07 Mar 11.7 08:30:22 10° N 08:37:11 12° NNE 08:42:51 10° NE visible
07 Mar 9.6 23:14:26 10° W 23:22:25 41° NNW 23:28:16 29° NNE visible
